PDT,Max TemperatureF,Mean TemperatureF,Min TemperatureF,Max Dew PointF,MeanDew PointF,Min DewpointF,Max Humidity, Mean Humidity, Min Humidity, Max Sea Level PressureIn, Mean Sea Level PressureIn, Min Sea Level PressureIn, Max VisibilityMiles, Mean VisibilityMiles, Min VisibilityMiles, Max Wind SpeedMPH, Mean Wind SpeedMPH, Max Gust SpeedMPH,PrecipitationIn, CloudCover, Events, WindDirDegrees
2013-3-1,41,35,28,37,32,27,100,93,85,30.58,30.48,30.40,9,3,0,10,2,13,0.00,6,Fog,269
2013-3-2,50,39,27,38,34,27,100,81,61,30.46,30.25,30.06,10,9,5,21,5,24,T,2,Rain,130
2013-3-3,42,33,23,35,23,15,100,67,34,30.23,30.11,30.01,10,9,4,30,12,36,0.02,3,Rain-Snow,340
2013-3-4,44,29,14,23,16,11,100,64,27,30.32,30.23,30.14,10,10,10,20,7,24,T,0,,116
2013-3-5,43,35,26,26,19,13,75,57,38,30.14,29.97,29.77,10,10,10,25,11,29,0.00,5,,92
2013-3-6,50,40,29,32,29,24,89,66,42,29.96,29.73,29.62,10,9,2,31,13,37,0.03,5,Rain-Snow,129
2013-3-7,46,32,17,28,21,17,92,63,33,30.10,30.05,29.97,10,10,10,14,3,17,0.00,0,,144
2013-3-8,50,34,17,25,21,15,92,59,26,30.12,30.04,29.96,10,10,10,22,8,28,0.00,1,,295
2013-3-9,51,36,21,27,22,17,78,54,29,30.45,30.31,30.12,10,10,10,25,14,32,0.00,0,,313
2013-3-10,54,35,16,37,21,9,85,51,17,30.51,30.40,30.32,10,10,10,14,3,16,0.01,4,Rain,332
2013-3-11,49,40,31,37,36,30,100,78,56,30.34,30.30,30.25,10,10,7,9,4,12,0.04,7,Rain,275
2013-3-12,61,43,25,38,32,25,100,71,42,30.29,30.22,30.15,10,6,0,18,5,24,0.00,2,Fog,134
2013-3-13,63,49,34,38,35,31,92,62,32,30.26,30.22,30.16,10,10,10,14,3,17,0.00,2,,108
2013-3-14,64,46,28,37,34,27,96,66,36,30.24,30.15,30.08,10,10,10,20,4,25,0.00,0,,105
2013-3-15,58,44,29,37,32,27,92,64,36,30.21,30.15,30.10,10,7,0,16,6,20,0.00,1,,296
2013-3-16,56,39,22,36,29,23,92,62,32,30.13,29.97,29.84,10,9,1,32,7,38,0.01,3,Rain-Snow,292
2013-3-17,43,33,23,24,16,10,78,53,28,30.14,30.06,29.91,10,10,10,24,11,33,0.00,3,,312
2013-3-18,49,34,19,24,17,10,85,54,23,30.23,30.15,30.07,10,10,9,14,4,17,T,2,,273
2013-3-19,50,32,14,22,15,10,92,57,21,30.27,30.14,29.89,10,10,10,24,9,31,T,4,Rain,101
2013-3-20,61,46,30,42,34,24,86,67,47,29.94,29.76,29.58,10,10,4,41,16,52,0.08,7,Rain,120
2013-3-21,43,32,20,27,21,10,92,61,30,30.13,30.07,29.94,10,8,0,25,9,30,0.02,6,Fog-Snow,282
2013-3-22,39,28,16,20,17,12,84,64,44,30.32,30.19,30.09,10,10,6,24,9,29,T,3,Snow,295
2013-3-23,41,27,12,19,14,7,92,59,25,30.39,30.33,30.27,10,10,10,10,2,13,0.00,1,,202
2013-3-24,47,29,11,19,16,10,88,60,31,30.35,30.27,30.18,10,10,10,16,5,21,0.00,1,,95
2013-3-25,50,41,32,23,17,12,54,40,25,30.17,30.09,29.98,10,10,10,17,9,23,0.00,6,,116
2013-3-26,56,46,35,34,31,25,79,59,38,30.00,29.96,29.92,10,10,10,13,2,16,T,7,Rain,127
2013-3-27,57,42,27,43,35,26,100,74,47,30.01,29.97,29.94,10,9,2,22,6,26,0.10,5,Rain,128
2013-3-28,61,47,32,42,37,30,100,70,39,30.10,30.03,29.99,10,8,1,20,5,24,T,5,,295
2013-3-29,61,48,35,40,38,33,92,68,44,30.25,30.18,30.11,10,10,10,14,5,16,0.00,5,,268
2013-3-30,66,45,24,38,31,24,100,64,28,30.31,30.23,30.14,10,7,0,9,2,14,0.00,1,Fog,297
2013-3-31,70,47,23,35,29,19,100,58,15,30.13,30.05,29.90,10,6,0,10,3,12,0.00,1,Fog,243